This is the latest recevied weather packets stored in our database for station/object EA6AMI-5. If no packets are shown the sender has not sent any weather packets the latest 10 day(s).
| Time | Temp. | Humidity | Pressure | Rain* | Wind** | Luminosity | Snow |
|---|---|---|---|---|---|---|---|
| 1787655603 | 31.67° C | 34% | 1014.4 hPa | 0 mm | - | 728 W/m² | - |
| 1787655244 | 31.67° C | 34% | 1014.3 hPa | 0 mm | - | 726 W/m² | - |
| 1787654703 | 31.11° C | 36% | 1014.3 hPa | 0 mm | - | 717 W/m² | - |
| 1787654163 | 31.67° C | 34% | 1014.3 hPa | 0 mm | - | 707 W/m² | - |
| 1787653624 | 31.67° C | 34% | 1014.3 hPa | 0 mm | - | 695 W/m² | - |
| 1787653084 | 31.67° C | 34% | 1014.4 hPa | 0 mm | - | 688 W/m² | - |
| 1787652544 | 31.11° C | 36% | 1014.4 hPa | 0 mm | - | 670 W/m² | - |
| 1787652004 | 31.67° C | 35% | 1014.4 hPa | 0 mm | - | 653 W/m² | - |
| 1787651644 | 31.11° C | 33% | 1014.7 hPa | 0 mm | - | 632 W/m² | - |
| 1787651103 | 31.11° C | 36% | 1014.6 hPa | 0 mm | - | 603 W/m² | - |
| 1787650564 | 31.67° C | 37% | 1014.3 hPa | 0 mm | - | 575 W/m² | - |
| 1787650024 | 30.56° C | 40% | 1014.3 hPa | 0 mm | - | 531 W/m² | - |
| 1787649483 | 30.56° C | 42% | 1014.2 hPa | 0 mm | - | 527 W/m² | - |
| 1787648944 | 30° C | 44% | 1014.5 hPa | 0 mm | - | 513 W/m² | - |
| 1787648403 | 30° C | 39% | 1014.1 hPa | 0 mm | - | 492 W/m² | - |
| 1787648043 | 30° C | 44% | 1014 hPa | 0 mm | - | 475 W/m² | - |
| 1787647504 | 29.44° C | 48% | 1013.9 hPa | 0 mm | - | 454 W/m² | - |
| 1787646963 | 30° C | 48% | 1014.2 hPa | 0 mm | - | 430 W/m² | - |
| 1787646424 | 28.89° C | 51% | 1014.2 hPa | 0 mm | - | 410 W/m² | - |
| 1787645884 | 28.89° C | 53% | 1013.9 hPa | 0 mm | - | 384 W/m² | - |
| 1787645343 | 28.89° C | 55% | 1014 hPa | 0 mm | - | 351 W/m² | - |
| 1787644803 | 29.44° C | 55% | 1013.8 hPa | 0 mm | - | 327 W/m² | - |
| 1787644443 | 28.33° C | 57% | 1013.8 hPa | 0 mm | - | 309 W/m² | - |
| 1787643903 | 28.33° C | 59% | 1014 hPa | 0 mm | - | 290 W/m² | - |
| 1787643363 | 27.22° C | 63% | 1013.6 hPa | 0 mm | - | 267 W/m² | - |
* Rain latest hour (hover to see other rain measurements)
** Current wind speed in m/s (hover to see current wind gust speed)